Location: Catstown
(52.4386°N, 7.2633°W)
Time: 11:33:23
(UTC+00:00)

ARGOS - Pass Details

Date: 18 September 2020
Orbit: 821 x 834 km, 98.4° (Epoch: 23 October)

Event Time Altitude Azimuth Distance (km) Brightness Sun altitude
Rises 19:15:58 0° 154° (SSE) 3,344 5.9 -6.9°
Reaches altitude 10° 19:18:19 10° 152° (SSE) 2,416 5.2 -7.2°
Maximum altitude 19:23:37 68° 70° (ENE) 889 3.2 -8.0°
Drops below altitude 10° 19:28:58 10° 349° (N) 2,440 6.0 -8.8°
Sets 19:31:21 0° 347° (NNW) 3,379 6.7 -9.2°
